| time (UTC) | temp F | wind direction | speed MPH | gust MPH | rain 1hr in | rain 24hr in | rain mn in | humidity % | barometer mb |
| 20260831150559 | 57 | 40 | 2.0 | 6.0 | 0.00 | 0.00 | 0.00 | 87 | 1011.4 |
| 20260831150101 | 57 | 32 | 1.0 | 5.0 | 0.00 | 0.00 | 0.00 | 87 | 1011.3 |
| 20260831145558 | 56 | 49 | 2.0 | 4.0 | 0.00 | 0.00 | 0.00 | 88 | 1011.4 |
| 20260831145059 | 56 | 5 | 1.0 | 4.0 | 0.00 | 0.00 | 0.00 | 88 | 1011.4 |
| 20260831144653 | 56 | 36 | 2.0 | 4.0 | 0.00 | 0.00 | 0.00 | 88 | 1011.3 |
| 20260831144056 | 56 | 72 | 1.0 | 3.0 | 0.00 | 0.00 | 0.00 | 89 | 1011.4 |
| 20260831143559 | 55 | 67 | 1.0 | 3.0 | 0.00 | 0.00 | 0.00 | 90 | 1011.4 |
| 20260831143106 | 55 | 0 | 0.0 | 3.0 | 0.00 | 0.00 | 0.00 | 90 | 1011.4 |
| 20260831142557 | 55 | 31 | 1.0 | 3.0 | 0.00 | 0.00 | 0.00 | 90 | 1011.4 |
| 20260831142055 | 54 | 20 | 1.0 | 3.0 | 0.00 | 0.00 | 0.00 | 90 | 1011.3 |
| 20260831141608 | 54 | 29 | 1.0 | 3.0 | 0.00 | 0.00 | 0.00 | 90 | 1011.3 |
| 20260831141056 | 54 | 19 | 0.0 | 1.0 | 0.00 | 0.00 | 0.00 | 89 | 1011.4 |
| 20260831140556 | 54 | 0 | 0.0 | 1.0 | 0.00 | 0.00 | 0.00 | 88 | 1011.3 |
| 20260831135558 | 54 | 0 | 0.0 | 0.0 | 0.00 | 0.00 | 0.00 | 88 | 1011.4 |
| 20260831135055 | 54 | 0 | 0.0 | 0.0 | 0.00 | 0.00 | 0.00 | 88 | 1011.5 |
| 20260831134605 | 54 | 0 | 0.0 | 0.0 | 0.00 | 0.00 | 0.00 | 88 | 1011.4 |
| 20260831134055 | 54 | 0 | 0.0 | 0.0 | 0.00 | 0.00 | 0.00 | 88 | 1011.5 |
| 20260831133557 | 54 | 0 | 0.0 | 0.0 | 0.00 | 0.00 | 0.00 | 88 | 1011.5 |
| 20260831133109 | 54 | 0 | 0.0 | 1.0 | 0.00 | 0.00 | 0.00 | 87 | 1011.5 |
| 20260831132555 | 54 | 0 | 0.0 | 1.0 | 0.00 | 0.00 | 0.00 | 87 | 1011.4 |
| 20260831132056 | 55 | 0 | 0.0 | 1.0 | 0.00 | 0.00 | 0.00 | 87 | 1011.4 |
| 20260831131607 | 55 | 0 | 0.0 | 0.0 | 0.00 | 0.00 | 0.00 | 87 | 1011.6 |
| 20260831131056 | 55 | 0 | 0.0 | 0.0 | 0.00 | 0.00 | 0.00 | 87 | 1011.5 |
| 20260831130555 | 55 | 0 | 0.0 | 0.0 | 0.00 | 0.00 | 0.00 | 87 | 1011.5 |
| 20260831130110 | 55 | 0 | 0.0 | 0.0 | 0.00 | 0.00 | 0.00 | 87 | 1011.7 |
| 20260831125557 | 55 | 0 | 0.0 | 1.0 | 0.00 | 0.00 | 0.00 | 88 | 1011.6 |
| 20260831125057 | 55 | 0 | 0.0 | 2.0 | 0.00 | 0.00 | 0.00 | 88 | 1011.6 |
| 20260831124608 | 56 | 0 | 0.0 | 2.0 | 0.00 | 0.00 | 0.00 | 87 | 1011.7 |
| 20260831124055 | 56 | 0 | 0.0 | 2.0 | 0.00 | 0.00 | 0.00 | 87 | 1011.7 |
| 20260831123556 | 56 | 26 | 0.0 | 2.0 | 0.00 | 0.00 | 0.00 | 87 | 1011.7 |
| 20260831123100 | 56 | 0 | 0.0 | 3.0 | 0.00 | 0.00 | 0.00 | 87 | 1011.7 |
| 20260831122554 | 56 | 0 | 0.0 | 3.0 | 0.00 | 0.00 | 0.00 | 87 | 1011.7 |
| 20260831122058 | 56 | 25 | 1.0 | 3.0 | 0.00 | 0.00 | 0.00 | 87 | 1011.8 |
| 20260831121559 | 56 | 60 | 1.0 | 3.0 | 0.00 | 0.00 | 0.00 | 87 | 1012.0 |
| 20260831121056 | 56 | 26 | 1.0 | 3.0 | 0.00 | 0.00 | 0.00 | 87 | 1011.9 |
| 20260831120600 | 56 | 32 | 0.0 | 3.0 | 0.00 | 0.00 | 0.00 | 87 | 1012.0 |
| 20260831120057 | 56 | 0 | 0.0 | 3.0 | 0.00 | 0.00 | 0.00 | 87 | 1011.9 |
| 20260831115556 | 57 | 24 | 0.0 | 2.0 | 0.00 | 0.00 | 0.00 | 87 | 1011.9 |
| 20260831115056 | 57 | 0 | 0.0 | 2.0 | 0.00 | 0.00 | 0.00 | 86 | 1011.9 |
| 20260831114607 | 57 | 0 | 0.0 | 4.0 | 0.00 | 0.00 | 0.00 | 86 | 1011.9 |
| 20260831114057 | 57 | 0 | 0.0 | 4.0 | 0.00 | 0.00 | 0.00 | 86 | 1012.1 |
| 20260831113557 | 57 | 0 | 0.0 | 4.0 | 0.00 | 0.00 | 0.00 | 86 | 1012.1 |
| 20260831113111 | 57 | 0 | 0.0 | 3.0 | 0.00 | 0.00 | 0.00 | 86 | 1012.0 |
| 20260831112557 | 57 | 0 | 0.0 | 3.0 | 0.00 | 0.00 | 0.00 | 86 | 1012.1 |
| 20260831112055 | 57 | 0 | 0.0 | 3.0 | 0.00 | 0.00 | 0.00 | 86 | 1012.2 |
| 20260831111602 | 57 | 0 | 0.0 | 3.0 | 0.00 | 0.00 | 0.00 | 85 | 1012.2 |
| 20260831111056 | 57 | 0 | 0.0 | 3.0 | 0.00 | 0.00 | 0.00 | 85 | 1012.2 |
| 20260831110554 | 58 | 0 | 0.0 | 3.0 | 0.00 | 0.00 | 0.00 | 85 | 1012.3 |
| 20260831110104 | 58 | 18 | 0.0 | 3.0 | 0.00 | 0.00 | 0.00 | 85 | 1012.2 |
| 20260831105555 | 58 | 0 | 0.0 | 4.0 | 0.00 | 0.00 | 0.00 | 85 | 1012.3 |
| 20260831105055 | 58 | 23 | 1.0 | 4.0 | 0.00 | 0.00 | 0.00 | 85 | 1012.4 |
| 20260831104612 | 58 | 23 | 1.0 | 4.0 | 0.00 | 0.00 | 0.00 | 85 | 1012.4 |
| 20260831104054 | 58 | 28 | 1.0 | 7.0 | 0.00 | 0.00 | 0.00 | 84 | 1012.3 |
| 20260831103554 | 58 | 14 | 2.0 | 7.0 | 0.00 | 0.00 | 0.00 | 84 | 1012.4 |
| 20260831103058 | 58 | 63 | 1.0 | 4.0 | 0.00 | 0.00 | 0.00 | 84 | 1012.4 |
| 20260831102554 | 58 | 21 | 1.0 | 4.0 | 0.00 | 0.00 | 0.00 | 84 | 1012.5 |
| 20260831102055 | 58 | 42 | 1.0 | 7.0 | 0.00 | 0.00 | 0.00 | 84 | 1012.4 |
| 20260831101603 | 58 | 0 | 1.0 | 7.0 | 0.00 | 0.00 | 0.00 | 83 | 1012.4 |
| 20260831101058 | 59 | 32 | 1.0 | 5.0 | 0.00 | 0.00 | 0.00 | 83 | 1012.5 |
| 20260831100557 | 59 | 26 | 1.0 | 5.0 | 0.00 | 0.00 | 0.00 | 83 | 1012.5 |
| 20260831100120 | 59 | 14 | 1.0 | 4.0 | 0.00 | 0.00 | 0.00 | 83 | 1012.5 |
| 20260831095554 | 59 | 17 | 1.0 | 5.0 | 0.00 | 0.00 | 0.00 | 83 | 1012.5 |
| 20260831095054 | 59 | 0 | 1.0 | 5.0 | 0.00 | 0.00 | 0.00 | 82 | 1012.7 |
| 20260831094604 | 59 | 65 | 2.0 | 6.0 | 0.00 | 0.00 | 0.00 | 82 | 1012.7 |
| 20260831094055 | 59 | 45 | 2.0 | 6.0 | 0.00 | 0.00 | 0.00 | 82 | 1012.8 |
| 20260831093559 | 59 | 45 | 1.0 | 4.0 | 0.00 | 0.00 | 0.00 | 82 | 1012.8 |
| 20260831093102 | 59 | 13 | 0.0 | 5.0 | 0.00 | 0.00 | 0.00 | 82 | 1012.9 |
| 20260831092557 | 59 | 27 | 2.0 | 5.0 | 0.00 | 0.00 | 0.00 | 82 | 1012.9 |
| 20260831092056 | 59 | 44 | 2.0 | 5.0 | 0.00 | 0.00 | 0.00 | 81 | 1013.0 |
| 20260831091605 | 60 | 31 | 2.0 | 5.0 | 0.00 | 0.00 | 0.00 | 81 | 1013.1 |
| 20260831091057 | 60 | 14 | 2.0 | 9.0 | 0.00 | 0.00 | 0.00 | 81 | 1013.0 |
| 20260831090555 | 60 | 30 | 2.0 | 9.0 | 0.00 | 0.00 | 0.00 | 81 | 1013.1 |
| 20260831085555 | 60 | 22 | 2.0 | 5.0 | 0.00 | 0.00 | 0.00 | 81 | 1013.1 |
| 20260831085056 | 60 | 0 | 2.0 | 5.0 | 0.00 | 0.00 | 0.00 | 81 | 1013.2 |
| 20260831084637 | 60 | 26 | 2.0 | 5.0 | 0.00 | 0.00 | 0.00 | 81 | 1013.2 |
| 20260831084054 | 60 | 5 | 1.0 | 7.0 | 0.00 | 0.00 | 0.00 | 81 | 1013.1 |
| 20260831083554 | 60 | 22 | 1.0 | 7.0 | 0.00 | 0.00 | 0.00 | 81 | 1013.3 |
| 20260831083101 | 60 | 0 | 0.0 | 3.0 | 0.00 | 0.00 | 0.00 | 80 | 1013.2 |
| 20260831082557 | 60 | 5 | 0.0 | 2.0 | 0.00 | 0.00 | 0.00 | 80 | 1013.3 |
| 20260831082057 | 60 | 0 | 0.0 | 4.0 | 0.00 | 0.00 | 0.00 | 80 | 1013.3 |
| 20260831081601 | 60 | 0 | 0.0 | 4.0 | 0.00 | 0.00 | 0.00 | 80 | 1013.4 |
| 20260831081055 | 60 | 0 | 0.0 | 4.0 | 0.00 | 0.00 | 0.00 | 79 | 1013.6 |
| 20260831080556 | 61 | 12 | 1.0 | 4.0 | 0.00 | 0.00 | 0.00 | 79 | 1013.7 |
| 20260831080125 | 61 | 16 | 1.0 | 4.0 | 0.00 | 0.00 | 0.00 | 79 | 1013.7 |
| 20260831075557 | 61 | 39 | 1.0 | 4.0 | 0.00 | 0.00 | 0.00 | 79 | 1013.8 |
| 20260831075055 | 61 | 27 | 1.0 | 4.0 | 0.00 | 0.00 | 0.00 | 78 | 1013.9 |
| 20260831074607 | 61 | 36 | 1.0 | 5.0 | 0.00 | 0.00 | 0.00 | 78 | 1013.9 |
| 20260831074055 | 61 | 49 | 2.0 | 5.0 | 0.00 | 0.00 | 0.00 | 78 | 1013.8 |
| 20260831073555 | 61 | 53 | 1.0 | 4.0 | 0.00 | 0.00 | 0.00 | 78 | 1013.9 |
| 20260831073104 | 61 | 26 | 1.0 | 3.0 | 0.00 | 0.00 | 0.00 | 77 | 1013.9 |
| 20260831072555 | 61 | 49 | 0.0 | 3.0 | 0.00 | 0.00 | 0.00 | 77 | 1013.9 |
| 20260831072058 | 62 | 0 | 0.0 | 4.0 | 0.00 | 0.00 | 0.00 | 76 | 1014.0 |
| 20260831071616 | 62 | 12 | 0.0 | 4.0 | 0.00 | 0.00 | 0.00 | 76 | 1014.0 |
| 20260831071055 | 62 | 28 | 1.0 | 4.0 | 0.00 | 0.00 | 0.00 | 76 | 1014.1 |
| 20260831070557 | 62 | 28 | 1.0 | 5.0 | 0.00 | 0.00 | 0.00 | 76 | 1014.1 |
| 20260831070104 | 62 | 24 | 1.0 | 5.0 | 0.00 | 0.00 | 0.00 | 76 | 1014.2 |
| 20260831065557 | 62 | 19 | 2.0 | 5.0 | 0.00 | 0.00 | 0.00 | 75 | 1014.3 |
| 20260831065055 | 62 | 27 | 0.0 | 4.0 | 0.00 | 0.00 | 0.00 | 75 | 1014.3 |
| 20260831064600 | 62 | 27 | 1.0 | 4.0 | 0.00 | 0.00 | 0.00 | 75 | 1014.4 |
| 20260831064054 | 62 | 36 | 1.0 | 4.0 | 0.00 | 0.00 | 0.00 | 75 | 1014.4 |
| 20260831063554 | 62 | 45 | 0.0 | 5.0 | 0.00 | 0.00 | 0.00 | 74 | 1014.4 |
| 20260831063115 | 63 | 32 | 0.0 | 5.0 | 0.00 | 0.00 | 0.00 | 74 | 1014.4 |
| 20260831062600 | 63 | 5 | 0.0 | 5.0 | 0.00 | 0.00 | 0.00 | 74 | 1014.4 |
| 20260831062055 | 63 | 40 | 1.0 | 5.0 | 0.00 | 0.00 | 0.00 | 74 | 1014.5 |
| 20260831061603 | 63 | 351 | 0.0 | 8.0 | 0.00 | 0.00 | 0.00 | 73 | 1014.4 |
| 20260831061055 | 63 | 5 | 1.0 | 8.0 | 0.00 | 0.00 | 0.00 | 73 | 1014.5 |
| 20260831060554 | 63 | 0 | 0.0 | 7.0 | 0.00 | 0.00 | 0.00 | 73 | 1014.5 |
| 20260831055555 | 63 | 343 | 0.0 | 4.0 | 0.00 | 0.00 | 0.00 | 73 | 1014.6 |
| 20260831055055 | 63 | 5 | 1.0 | 5.0 | 0.00 | 0.00 | 0.00 | 72 | 1014.6 |
| 20260831054603 | 63 | 26 | 0.0 | 5.0 | 0.00 | 0.00 | 0.00 | 72 | 1014.7 |
| 20260831054055 | 63 | 0 | 1.0 | 5.0 | 0.00 | 0.00 | 0.00 | 72 | 1014.7 |
| 20260831053554 | 63 | 5 | 0.0 | 5.0 | 0.00 | 0.00 | 0.00 | 72 | 1014.8 |
| 20260831053119 | 63 | 10 | 2.0 | 5.0 | 0.00 | 0.00 | 0.00 | 71 | 1014.8 |
| 20260831052556 | 63 | 36 | 0.0 | 5.0 | 0.00 | 0.00 | 0.00 | 71 | 1015.0 |
| 20260831052057 | 63 | 310 | 0.0 | 5.0 | 0.00 | 0.00 | 0.00 | 71 | 1015.0 |
| 20260831051559 | 63 | 0 | 0.0 | 3.0 | 0.00 | 0.00 | 0.00 | 71 | 1015.1 |
| 20260831051055 | 64 | 18 | 0.0 | 3.0 | 0.00 | 0.00 | 0.00 | 70 | 1015.1 |
| 20260831050555 | 64 | 0 | 0.0 | 3.0 | 0.00 | 0.00 | 0.00 | 70 | 1015.1 |
| 20260831050124 | 64 | 32 | 0.0 | 2.0 | 0.00 | 0.00 | 0.00 | 70 | 1015.2 |
| 20260831045555 | 64 | 0 | 0.0 | 3.0 | 0.00 | 0.00 | 0.00 | 69 | 1015.2 |
| 20260831045055 | 64 | 0 | 0.0 | 3.0 | 0.00 | 0.00 | 0.00 | 69 | 1015.2 |
| 20260831044601 | 64 | 5 | 0.0 | 2.0 | 0.00 | 0.00 | 0.00 | 69 | 1015.3 |
| 20260831044057 | 65 | 5 | 0.0 | 4.0 | 0.00 | 0.00 | 0.00 | 68 | 1015.3 |
| 20260831043554 | 65 | 0 | 0.0 | 4.0 | 0.00 | 0.00 | 0.00 | 68 | 1015.3 |
| 20260831043103 | 65 | 70 | 0.0 | 3.0 | 0.00 | 0.00 | 0.00 | 68 | 1015.3 |
| 20260831042557 | 65 | 21 | 0.0 | 4.0 | 0.00 | 0.00 | 0.00 | 68 | 1015.3 |
| 20260831042057 | 65 | 0 | 1.0 | 5.0 | 0.00 | 0.00 | 0.00 | 67 | 1015.3 |
| 20260831041620 | 65 | 20 | 1.0 | 6.0 | 0.00 | 0.00 | 0.00 | 67 | 1015.3 |
| 20260831041057 | 65 | 0 | 0.0 | 6.0 | 0.00 | 0.00 | 0.00 | 67 | 1015.3 |
| 20260831040557 | 65 | 28 | 0.0 | 5.0 | 0.00 | 0.00 | 0.00 | 67 | 1015.3 |
| 20260831040107 | 65 | 37 | 0.0 | 5.0 | 0.00 | 0.00 | 0.00 | 66 | 1015.3 |
| 20260831035555 | 65 | 70 | 1.0 | 5.0 | 0.00 | 0.00 | 0.00 | 66 | 1015.4 |
| 20260831035054 | 66 | 17 | 0.0 | 3.0 | 0.00 | 0.00 | 0.00 | 66 | 1015.5 |
| 20260831034605 | 66 | 0 | 0.0 | 2.0 | 0.00 | 0.00 | 0.00 | 65 | 1015.5 |
| 20260831034055 | 66 | 0 | 0.0 | 6.0 | 0.00 | 0.00 | 0.00 | 65 | 1015.5 |
| 20260831033555 | 66 | 0 | 0.0 | 6.0 | 0.00 | 0.00 | 0.00 | 64 | 1015.5 |
| 20260831033114 | 66 | 311 | 1.0 | 6.0 | 0.00 | 0.00 | 0.00 | 64 | 1015.5 |
| 20260831032555 | 67 | 11 | 0.0 | 2.0 | 0.00 | 0.00 | 0.00 | 63 | 1015.5 |
| 20260831032100 | 67 | 0 | 0.0 | 1.0 | 0.00 | 0.00 | 0.00 | 62 | 1015.5 |
| 20260831031601 | 67 | 0 | 0.0 | 2.0 | 0.00 | 0.00 | 0.00 | 62 | 1015.6 |
| 20260831031055 | 67 | 0 | 0.0 | 2.0 | 0.00 | 0.00 | 0.00 | 62 | 1015.6 |
| 20260831030555 | 67 | 40 | 0.0 | 4.0 | 0.00 | 0.00 | 0.00 | 61 | 1015.6 |
| 20260831030109 | 68 | 167 | 0.0 | 5.0 | 0.00 | 0.00 | 0.00 | 61 | 1015.5 |
| 20260831025555 | 68 | 0 | 1.0 | 5.0 | 0.00 | 0.00 | 0.00 | 60 | 1015.6 |
| 20260831025058 | 68 | 5 | 0.0 | 5.0 | 0.00 | 0.00 | 0.00 | 60 | 1015.6 |
| 20260831024604 | 68 | 0 | 1.0 | 5.0 | 0.00 | 0.00 | 0.00 | 59 | 1015.7 |
| 20260831024054 | 69 | 0 | 1.0 | 4.0 | 0.00 | 0.00 | 0.00 | 59 | 1015.6 |
| 20260831023555 | 69 | 0 | 1.0 | 4.0 | 0.00 | 0.00 | 0.00 | 58 | 1015.6 |
| 20260831023102 | 69 | 40 | 0.0 | 4.0 | 0.00 | 0.00 | 0.00 | 58 | 1015.6 |
| 20260831022555 | 69 | 18 | 1.0 | 4.0 | 0.00 | 0.00 | 0.00 | 57 | 1015.6 |
| 20260831022055 | 70 | 5 | 1.0 | 9.0 | 0.00 | 0.00 | 0.00 | 56 | 1015.7 |
| 20260831021559 | 70 | 5 | 2.0 | 9.0 | 0.00 | 0.00 | 0.00 | 55 | 1015.8 |
| 20260831021057 | 71 | 26 | 1.0 | 9.0 | 0.00 | 0.00 | 0.00 | 55 | 1015.9 |
| 20260831020555 | 71 | 0 | 1.0 | 8.0 | 0.00 | 0.00 | 0.00 | 55 | 1015.9 |
| 20260831015554 | 71 | 33 | 0.0 | 4.0 | 0.00 | 0.00 | 0.00 | 54 | 1016.0 |
| 20260831015055 | 72 | 16 | 2.0 | 9.0 | 0.00 | 0.00 | 0.00 | 54 | 1015.9 |
| 20260831014604 | 72 | 74 | 2.0 | 9.0 | 0.00 | 0.00 | 0.00 | 52 | 1016.0 |
| 20260831014055 | 72 | 360 | 2.0 | 9.0 | 0.00 | 0.00 | 0.00 | 52 | 1016.0 |
| 20260831013555 | 73 | 0 | 1.0 | 6.0 | 0.00 | 0.00 | 0.00 | 52 | 1016.0 |
| 20260831013101 | 73 | 0 | 2.0 | 6.0 | 0.00 | 0.00 | 0.00 | 52 | 1016.0 |
| 20260831012555 | 73 | 341 | 1.0 | 8.0 | 0.00 | 0.00 | 0.00 | 52 | 1016.1 |
| 20260831012055 | 73 | 53 | 2.0 | 8.0 | 0.00 | 0.00 | 0.00 | 51 | 1016.2 |
| 20260831011605 | 73 | 360 | 2.0 | 6.0 | 0.00 | 0.00 | 0.00 | 51 | 1016.2 |
| 20260831011054 | 73 | 321 | 1.0 | 6.0 | 0.00 | 0.00 | 0.00 | 51 | 1016.2 |
| 20260831010555 | 73 | 63 | 1.0 | 6.0 | 0.00 | 0.00 | 0.00 | 49 | 1016.3 |
| 20260831010113 | 73 | 0 | 2.0 | 8.0 | 0.00 | 0.00 | 0.00 | 50 | 1016.2 |
| 20260831005558 | 73 | 323 | 2.0 | 11.0 | 0.00 | 0.00 | 0.00 | 49 | 1016.3 |
| 20260831005056 | 73 | 337 | 2.0 | 11.0 | 0.00 | 0.00 | 0.00 | 49 | 1016.5 |
| 20260831004608 | 74 | 27 | 3.0 | 11.0 | 0.00 | 0.00 | 0.00 | 48 | 1016.5 |
| 20260831004056 | 74 | 325 | 2.0 | 11.0 | 0.00 | 0.00 | 0.00 | 49 | 1016.5 |
| 20260831003555 | 74 | 26 | 1.0 | 9.0 | 0.00 | 0.00 | 0.00 | 47 | 1016.4 |
| 20260831003110 | 74 | 0 | 2.0 | 10.0 | 0.00 | 0.00 | 0.00 | 48 | 1016.5 |
| 20260831002555 | 74 | 32 | 3.0 | 10.0 | 0.00 | 0.00 | 0.00 | 48 | 1016.6 |
| 20260831002055 | 74 | 25 | 3.0 | 10.0 | 0.00 | 0.00 | 0.00 | 48 | 1016.5 |
| 20260831001559 | 74 | 23 | 3.0 | 9.0 | 0.00 | 0.00 | 0.00 | 47 | 1016.7 |
| 20260831001056 | 74 | 5 | 2.0 | 9.0 | 0.00 | 0.00 | 0.00 | 48 | 1016.5 |
| 20260831000556 | 74 | 65 | 1.0 | 9.0 | 0.00 | 0.00 | 0.00 | 48 | 1016.5 |
| 20260831000103 | 74 | 321 | 4.0 | 9.0 | 0.00 | 0.00 | 0.00 | 47 | 1016.5 |
| 20260830235556 | 75 | 59 | 2.0 | 8.0 | 0.00 | 0.00 | 0.00 | 47 | 1016.5 |
| 20260830235056 | 75 | 291 | 1.0 | 8.0 | 0.00 | 0.00 | 0.00 | 47 | 1016.6 |
| 20260830234607 | 75 | 24 | 2.0 | 16.0 | 0.00 | 0.00 | 0.00 | 46 | 1016.7 |
| 20260830234055 | 75 | 30 | 2.0 | 16.0 | 0.00 | 0.00 | 0.00 | 47 | 1016.7 |
| 20260830233557 | 75 | 69 | 1.0 | 8.0 | 0.00 | 0.00 | 0.00 | 47 | 1016.8 |
| 20260830233103 | 75 | 335 | 3.0 | 8.0 | 0.00 | 0.00 | 0.00 | 48 | 1016.9 |
| 20260830232557 | 74 | 330 | 2.0 | 8.0 | 0.00 | 0.00 | 0.00 | 48 | 1017.0 |
| 20260830232057 | 75 | 9 | 3.0 | 8.0 | 0.00 | 0.00 | 0.00 | 47 | 1017.1 |
| 20260830231622 | 75 | 285 | 2.0 | 10.0 | 0.00 | 0.00 | 0.00 | 46 | 1017.1 |
| 20260830231057 | 75 | 309 | 2.0 | 10.0 | 0.00 | 0.00 | 0.00 | 47 | 1017.1 |
| 20260830230555 | 74 | 19 | 3.0 | 10.0 | 0.00 | 0.00 | 0.00 | 47 | 1017.1 |
| 20260830225557 | 75 | 0 | 1.0 | 10.0 | 0.00 | 0.00 | 0.00 | 47 | 1017.2 |
| 20260830225100 | 75 | 336 | 2.0 | 10.0 | 0.00 | 0.00 | 0.00 | 46 | 1017.2 |
| 20260830224612 | 75 | 316 | 3.0 | 11.0 | 0.00 | 0.00 | 0.00 | 46 | 1017.4 |
| 20260830224057 | 75 | 325 | 3.0 | 11.0 | 0.00 | 0.00 | 0.00 | 46 | 1017.6 |
| 20260830223555 | 75 | 59 | 1.0 | 7.0 | 0.00 | 0.00 | 0.00 | 46 | 1017.6 |
| 20260830223103 | 75 | 28 | 2.0 | 8.0 | 0.00 | 0.00 | 0.00 | 46 | 1017.7 |
| 20260830222558 | 75 | 344 | 2.0 | 8.0 | 0.00 | 0.00 | 0.00 | 46 | 1017.8 |
| 20260830222054 | 75 | 352 | 2.0 | 8.0 | 0.00 | 0.00 | 0.00 | 47 | 1017.9 |
| 20260830221601 | 74 | 291 | 2.0 | 8.0 | 0.00 | 0.00 | 0.00 | 47 | 1017.9 |
| 20260830221055 | 74 | 70 | 1.0 | 10.0 | 0.00 | 0.00 | 0.00 | 47 | 1018.0 |
| 20260830220555 | 73 | 351 | 2.0 | 10.0 | 0.00 | 0.00 | 0.00 | 49 | 1018.1 |
| 20260830220104 | 72 | 32 | 1.0 | 9.0 | 0.00 | 0.00 | 0.00 | 49 | 1018.1 |
| 20260830215555 | 72 | 39 | 4.0 | 9.0 | 0.00 | 0.00 | 0.00 | 49 | 1018.2 |
| 20260830215056 | 73 | 71 | 3.0 | 9.0 | 0.00 | 0.00 | 0.00 | 48 | 1018.3 |
| 20260830214600 | 73 | 312 | 2.0 | 8.0 | 0.00 | 0.00 | 0.00 | 48 | 1018.4 |
| 20260830214056 | 73 | 5 | 2.0 | 12.0 | 0.00 | 0.00 | 0.00 | 48 | 1018.4 |
| 20260830213556 | 72 | 352 | 3.0 | 12.0 | 0.00 | 0.00 | 0.00 | 50 | 1018.5 |
| 20260830213059 | 72 | 5 | 4.0 | 10.0 | 0.00 | 0.00 | 0.00 | 49 | 1018.5 |
| 20260830212554 | 73 | 25 | 2.0 | 11.0 | 0.00 | 0.00 | 0.00 | 48 | 1018.5 |
| 20260830212056 | 72 | 352 | 2.0 | 11.0 | 0.00 | 0.00 | 0.00 | 49 | 1018.6 |
| 20260830211557 | 72 | 69 | 4.0 | 11.0 | 0.00 | 0.00 | 0.00 | 50 | 1018.7 |
| 20260830211056 | 72 | 62 | 4.0 | 9.0 | 0.00 | 0.00 | 0.00 | 49 | 1018.7 |
| 20260830210557 | 72 | 360 | 2.0 | 10.0 | 0.00 | 0.00 | 0.00 | 48 | 1018.6 |
| 20260830210133 | 72 | 340 | 3.0 | 10.0 | 0.00 | 0.00 | 0.00 | 48 | 1018.8 |
| 20260830205555 | 72 | 360 | 1.0 | 8.0 | 0.00 | 0.00 | 0.00 | 50 | 1018.7 |
| 20260830205055 | 72 | 13 | 1.0 | 8.0 | 0.00 | 0.00 | 0.00 | 51 | 1018.7 |
| 20260830204611 | 71 | 5 | 2.0 | 8.0 | 0.00 | 0.00 | 0.00 | 51 | 1018.8 |
| 20260830204055 | 70 | 309 | 2.0 | 9.0 | 0.00 | 0.00 | 0.00 | 53 | 1018.8 |
| 20260830203555 | 70 | 123 | 3.0 | 9.0 | 0.00 | 0.00 | 0.00 | 52 | 1018.9 |
| 20260830203100 | 70 | 57 | 2.0 | 6.0 | 0.00 | 0.00 | 0.00 | 52 | 1019.1 |
| 20260830202555 | 70 | 0 | 1.0 | 8.0 | 0.00 | 0.00 | 0.00 | 52 | 1019.2 |
| 20260830202055 | 70 | 148 | 2.0 | 8.0 | 0.00 | 0.00 | 0.00 | 51 | 1019.2 |
| 20260830201601 | 70 | 319 | 2.0 | 8.0 | 0.00 | 0.00 | 0.00 | 52 | 1019.4 |
| 20260830201056 | 70 | 300 | 4.0 | 8.0 | 0.00 | 0.00 | 0.00 | 51 | 1019.4 |
| 20260830200555 | 70 | 74 | 2.0 | 8.0 | 0.00 | 0.00 | 0.00 | 51 | 1019.5 |
| 20260830200115 | 71 | 342 | 2.0 | 8.0 | 0.00 | 0.00 | 0.00 | 51 | 1019.6 |
| 20260830195555 | 71 | 65 | 1.0 | 8.0 | 0.00 | 0.00 | 0.00 | 50 | 1019.6 |
| 20260830195056 | 70 | 5 | 2.0 | 7.0 | 0.00 | 0.00 | 0.00 | 52 | 1019.6 |
| 20260830194645 | 70 | 309 | 2.0 | 5.0 | 0.00 | 0.00 | 0.00 | 52 | 1019.6 |
| 20260830194055 | 69 | 250 | 1.0 | 6.0 | 0.00 | 0.00 | 0.00 | 53 | 1019.6 |
| 20260830193559 | 68 | 305 | 1.0 | 8.0 | 0.00 | 0.00 | 0.00 | 55 | 1019.6 |
| 20260830193105 | 68 | 0 | 3.0 | 8.0 | 0.00 | 0.00 | 0.00 | 54 | 1019.7 |
| 20260830192554 | 68 | 82 | 2.0 | 6.0 | 0.00 | 0.00 | 0.00 | 55 | 1019.7 |
| 20260830192056 | 68 | 325 | 3.0 | 7.0 | 0.00 | 0.00 | 0.00 | 54 | 1019.8 |
| 20260830191612 | 68 | 104 | 2.0 | 7.0 | 0.00 | 0.00 | 0.00 | 55 | 1020.0 |
| 20260830191057 | 69 | 5 | 2.0 | 7.0 | 0.00 | 0.00 | 0.00 | 55 | 1020.0 |
| 20260830190556 | 69 | 17 | 2.0 | 7.0 | 0.00 | 0.00 | 0.00 | 54 | 1019.9 |
| 20260830185555 | 68 | 86 | 2.0 | 7.0 | 0.00 | 0.00 | 0.00 | 55 | 1020.1 |
| 20260830185057 | 67 | 132 | 2.0 | 7.0 | 0.00 | 0.00 | 0.00 | 57 | 1020.2 |
| 20260830184601 | 67 | 9 | 2.0 | 6.0 | 0.00 | 0.00 | 0.00 | 60 | 1020.2 |
| 20260830184057 | 66 | 302 | 2.0 | 8.0 | 0.00 | 0.00 | 0.00 | 61 | 1020.2 |
| 20260830183600 | 66 | 5 | 2.0 | 8.0 | 0.00 | 0.00 | 0.00 | 60 | 1020.2 |
| 20260830183115 | 66 | 319 | 1.0 | 8.0 | 0.00 | 0.00 | 0.00 | 61 | 1020.2 |
| 20260830182558 | 65 | 67 | 2.0 | 8.0 | 0.00 | 0.00 | 0.00 | 62 | 1020.3 |
| 20260830182056 | 65 | 336 | 2.0 | 7.0 | 0.00 | 0.00 | 0.00 | 63 | 1020.3 |
| 20260830181603 | 64 | 276 | 2.0 | 8.0 | 0.00 | 0.00 | 0.00 | 63 | 1020.2 |
| 20260830181059 | 64 | 14 | 2.0 | 8.0 | 0.00 | 0.00 | 0.00 | 63 | 1020.2 |
| 20260830180556 | 64 | 17 | 2.0 | 10.0 | 0.00 | 0.00 | 0.00 | 63 | 1020.2 |
| 20260830180109 | 64 | 42 | 2.0 | 10.0 | 0.00 | 0.00 | 0.00 | 64 | 1020.2 |
| 20260830175556 | 64 | 62 | 4.0 | 9.0 | 0.00 | 0.00 | 0.00 | 64 | 1020.1 |
| 20260830175059 | 64 | 37 | 2.0 | 7.0 | 0.00 | 0.00 | 0.00 | 65 | 1020.1 |
| 20260830174608 | 63 | 110 | 2.0 | 5.0 | 0.00 | 0.00 | 0.00 | 67 | 1020.1 |
| 20260830174058 | 62 | 36 | 2.0 | 5.0 | 0.00 | 0.00 | 0.00 | 69 | 1020.1 |
| 20260830173559 | 63 | 36 | 1.0 | 5.0 | 0.00 | 0.00 | 0.00 | 68 | 1020.2 |
| 20260830173134 | 63 | 11 | 2.0 | 6.0 | 0.00 | 0.00 | 0.00 | 67 | 1020.2 |
| 20260830172554 | 63 | 13 | 2.0 | 6.0 | 0.00 | 0.00 | 0.00 | 67 | 1020.1 |
| 20260830172058 | 63 | 0 | 1.0 | 3.0 | 0.00 | 0.00 | 0.00 | 67 | 1020.1 |
| 20260830171609 | 63 | 42 | 1.0 | 4.0 | 0.00 | 0.00 | 0.00 | 68 | 1020.2 |
| 20260830171056 | 63 | 153 | 1.0 | 6.0 | 0.00 | 0.00 | 0.00 | 68 | 1020.2 |
| 20260830170559 | 63 | 112 | 3.0 | 6.0 | 0.00 | 0.00 | 0.00 | 67 | 1020.2 |
| 20260830170106 | 63 | 70 | 1.0 | 7.0 | 0.00 | 0.00 | 0.00 | 68 | 1020.2 |
| 20260830165556 | 63 | 82 | 3.0 | 7.0 | 0.00 | 0.00 | 0.00 | 67 | 1020.2 |
| 20260830165056 | 63 | 90 | 1.0 | 4.0 | 0.00 | 0.00 | 0.00 | 70 | 1020.2 |
| 20260830164603 | 63 | 302 | 2.0 | 5.0 | 0.00 | 0.00 | 0.00 | 70 | 1020.1 |
| 20260830164057 | 62 | 284 | 2.0 | 5.0 | 0.00 | 0.00 | 0.00 | 70 | 1020.1 |
| 20260830163556 | 62 | 0 | 1.0 | 5.0 | 0.00 | 0.00 | 0.00 | 73 | 1020.2 |
| 20260830163107 | 62 | 121 | 1.0 | 5.0 | 0.00 | 0.00 | 0.00 | 74 | 1020.2 |
| 20260830162556 | 61 | 94 | 1.0 | 5.0 | 0.00 | 0.00 | 0.00 | 74 | 1020.4 |
| 20260830162054 | 61 | 0 | 0.0 | 4.0 | 0.00 | 0.00 | 0.00 | 76 | 1020.4 |
| 20260830161627 | 61 | 63 | 1.0 | 4.0 | 0.00 | 0.00 | 0.00 | 76 | 1020.4 |
| 20260830161055 | 60 | 50 | 2.0 | 4.0 | 0.00 | 0.00 | 0.00 | 77 | 1020.4 |
| 20260830160555 | 60 | 0 | 1.0 | 4.0 | 0.00 | 0.00 | 0.00 | 78 | 1020.4 |
| 20260830160104 | 60 | 66 | 1.0 | 4.0 | 0.00 | 0.00 | 0.00 | 79 | 1020.4 |
| 20260830155557 | 59 | 66 | 0.0 | 4.0 | 0.00 | 0.00 | 0.00 | 80 | 1020.4 |
| 20260830155058 | 59 | 129 | 1.0 | 3.0 | 0.00 | 0.00 | 0.00 | 81 | 1020.4 |
| 20260830154558 | 58 | 84 | 1.0 | 3.0 | 0.00 | 0.00 | 0.00 | 83 | 1020.5 |
| 20260830154056 | 58 | 0 | 1.0 | 3.0 | 0.00 | 0.00 | 0.00 | 84 | 1020.4 |
| 20260830153555 | 57 | 83 | 0.0 | 3.0 | 0.00 | 0.00 | 0.00 | 86 | 1020.5 |
| 20260830153102 | 56 | 62 | 1.0 | 2.0 | 0.00 | 0.00 | 0.00 | 87 | 1020.5 |
| 20260830152555 | 56 | 0 | 0.0 | 2.0 | 0.00 | 0.00 | 0.00 | 89 | 1020.5 |
| 20260830152055 | 55 | 61 | 0.0 | 2.0 | 0.00 | 0.00 | 0.00 | 90 | 1020.7 |
| 20260830151601 | 55 | 300 | 0.0 | 2.0 | 0.00 | 0.00 | 0.00 | 91 | 1020.7 |
| 20260830151056 | 54 | 300 | 0.0 | 2.0 | 0.00 | 0.00 | 0.00 | 91 | 1020.6 |